Vancouver, WA
on Saturday, November 3, 2012

Saturday
Previous Day Next Day
Daily Summary
 ActualAverageRecord
Temperature
Mean Temperature °F / °C 49°F / 9°C  
Max Temperature 63°F / 17°C 57°F / 14°C 72°F / 22°C (2010)
Min Temperature 53°F / 12°C 42°F / 6°C 17°F / -8°C (1935)
Degree Days
Heating Degree Days 7    
Month to date heating degree days 25  
Since 1 July heating degree days 344  
Cooling Degree Days 0    
Month to date cooling degree days 0  
Year to date cooling degree days 398  
Growing Degree Days8 (Base °F / °C )  
Moisture
Dew Point 53°F / 12°C   
Average Humidity 83    
Maximum Humidity 93    
Minimum Humidity 72    
Precipitation
Precipitation 0.12 in / 3.05 cm 0.16 in / 4.06 cm 1.53 in / 3.89 cm (1944)
Month to date precipitation 0.38 0.48  
Year to date precipitation 31.54 26.94  
Snow
Snow 0.00 in / 0.00 cm in / cm in / cm ()
Month to date snowfall 0.0  
Snow Depth 0.00 in / 0.00 cm   
Wind
Wind Speed 4 mph / 6 km/h   
Max Wind Speed 9 mph / 14 km/h   
Max Gust Speed 14 mph / 23 km/h   
Visibility 8 miles / 13 kilometers   
Events Rain   

Key: T is trace of precipitation, MM is missing value
Source: NWS Daily Summary
Time(PDT)TemperatureDew PointHumidity Pressure Visibility Wind DirectionWind SpeedGust SpeedPrecipitationEvents Conditions
12:53 AM 55.0°F / 12.8°C 51.1°F / 10.6°C 86% 30.01 in / 1016.1 hPa 10.0 miles / 16.1 kilometers SE 4.6 mph / 7.4 km/h - 0.00 in / 0.0 cm Rain Light Rain
1:32 AM 53.6°F / 12.0°C 51.8°F / 11.0°C 94% 30.01 in / 1016.1 hPa 8.0 miles / 12.9 kilometers SE 3.5 mph / 5.6 km/h - 0.00 in / 0.0 cm Rain Light Rain
1:39 AM 53.6°F / 12.0°C 51.8°F / 11.0°C 94% 30.01 in / 1016.1 hPa 8.0 miles / 12.9 kilometers ESE 5.8 mph / 9.3 km/h - 0.00 in / 0.0 cm Rain Light Rain
1:53 AM 54.0°F / 12.2°C 51.1°F / 10.6°C 90% 30.01 in / 1016.3 hPa 6.0 miles / 9.7 kilometers ESE 6.9 mph / 11.1 km/h - 0.01 in / 0.3 cm Rain Light Rain
2:03 AM 53.6°F / 12.0°C 51.8°F / 11.0°C 94% 30.01 in / 1016.1 hPa 4.0 miles / 6.4 kilometers ESE 5.8 mph / 9.3 km/h - 0.01 in / 0.3 cm Rain Light Rain
2:53 AM 54.0°F / 12.2°C 52.0°F / 11.1°C 93% 30.02 in / 1016.4 hPa 3.0 miles / 4.8 kilometers ESE 8.1 mph / 13.0 km/h - 0.05 in / 1.3 cm Rain Rain
3:00 AM 53.6°F / 12.0°C 51.8°F / 11.0°C 94% 30.02 in / 1016.5 hPa 5.0 miles / 8.0 kilometers ESE 6.9 mph / 11.1 km/h - 0.00 in / 0.0 cm Rain Light Rain
3:16 AM 53.6°F / 12.0°C 51.8°F / 11.0°C 94% 30.02 in / 1016.5 hPa 4.0 miles / 6.4 kilometers ESE 6.9 mph / 11.1 km/h - 0.00 in / 0.0 cm Rain Light Rain
3:53 AM 54.0°F / 12.2°C 52.0°F / 11.1°C 93% 30.02 in / 1016.6 hPa 3.0 miles / 4.8 kilometers ESE 6.9 mph / 11.1 km/h - 0.00 in / 0.0 cm Rain Light Rain
4:25 AM 53.6°F / 12.0°C 51.8°F / 11.0°C 94% 30.02 in / 1016.5 hPa 3.0 miles / 4.8 kilometers ESE 5.8 mph / 9.3 km/h - 0.02 in / 0.5 cm Rain Light Rain
4:53 AM 53.1°F / 11.7°C 52.0°F / 11.1°C 96% 30.04 in / 1017.0 hPa 3.0 miles / 4.8 kilometers ESE 8.1 mph / 13.0 km/h - 0.03 in / 0.8 cm Rain Light Rain
5:06 AM 53.6°F / 12.0°C 51.8°F / 11.0°C 94% 30.04 in / 1017.2 hPa 3.0 miles / 4.8 kilometers ESE 5.8 mph / 9.3 km/h - 0.00 in / 0.0 cm Rain Light Rain
5:11 AM 53.6°F / 12.0°C 51.8°F / 11.0°C 94% 30.04 in / 1017.2 hPa 3.0 miles / 4.8 kilometers SE 4.6 mph / 7.4 km/h - 0.01 in / 0.3 cm Rain Light Rain
5:53 AM 54.0°F / 12.2°C 52.0°F / 11.1°C 93% 30.04 in / 1017.3 hPa 4.0 miles / 6.4 kilometers SE 4.6 mph / 7.4 km/h - 0.03 in / 0.8 cm Rain Light Rain
6:43 AM 53.6°F / 12.0°C 51.8°F / 11.0°C 94% 30.04 in / 1017.2 hPa 10.0 miles / 16.1 kilometers ESE 4.6 mph / 7.4 km/h - 0.00 in / 0.0 cm   Overcast
6:53 AM 54.0°F / 12.2°C 53.1°F / 11.7°C 97% 30.04 in / 1017.2 hPa 10.0 miles / 16.1 kilometers ESE 4.6 mph / 7.4 km/h - 0.00 in / 0.0 cm   Overcast
7:29 AM 55.4°F / 13.0°C 53.6°F / 12.0°C 94% 30.05 in / 1017.5 hPa 10.0 miles / 16.1 kilometers ESE 3.5 mph / 5.6 km/h - N/A   Overcast
7:53 AM 55.9°F / 13.3°C 53.1°F / 11.7°C 90% 30.06 in / 1017.9 hPa 10.0 miles / 16.1 kilometers Calm Calm - N/A   Overcast
8:53 AM 57.0°F / 13.9°C 53.1°F / 11.7°C 87% 30.07 in / 1018.3 hPa 10.0 miles / 16.1 kilometers East 6.9 mph / 11.1 km/h - N/A   Overcast
9:53 AM 57.0°F / 13.9°C 53.1°F / 11.7°C 87% 30.09 in / 1018.9 hPa 10.0 miles / 16.1 kilometers ESE 8.1 mph / 13.0 km/h - N/A   Overcast
10:04 AM 57.2°F / 14.0°C 53.6°F / 12.0°C 88% 30.09 in / 1018.8 hPa 10.0 miles / 16.1 kilometers ESE 6.9 mph / 11.1 km/h - N/A   Overcast
10:53 AM 57.9°F / 14.4°C 54.0°F / 12.2°C 87% 30.11 in / 1019.6 hPa 10.0 miles / 16.1 kilometers Calm Calm - N/A   Overcast
11:53 AM 59.0°F / 15.0°C 54.0°F / 12.2°C 83% 30.13 in / 1020.2 hPa 10.0 miles / 16.1 kilometers Calm Calm - N/A   Overcast
12:18 PM 59.0°F / 15.0°C 55.4°F / 13.0°C 88% 30.12 in / 1019.9 hPa 10.0 miles / 16.1 kilometers ESE 3.5 mph / 5.6 km/h - N/A   Overcast
12:53 PM 60.1°F / 15.6°C 55.0°F / 12.8°C 83% 30.12 in / 1019.7 hPa 10.0 miles / 16.1 kilometers SE 5.8 mph / 9.3 km/h - N/A   Overcast
1:53 PM 62.1°F / 16.7°C 55.0°F / 12.8°C 78% 30.12 in / 1019.8 hPa 10.0 miles / 16.1 kilometers South 4.6 mph / 7.4 km/h - N/A   Overcast
2:11 PM 62.6°F / 17.0°C 55.4°F / 13.0°C 77% 30.12 in / 1019.9 hPa 10.0 miles / 16.1 kilometers Variable 4.6 mph / 7.4 km/h - N/A   Overcast
2:21 PM 62.6°F / 17.0°C 55.4°F / 13.0°C 77% 30.13 in / 1020.2 hPa 10.0 miles / 16.1 kilometers Calm Calm - N/A   Overcast
2:34 PM 62.6°F / 17.0°C 53.6°F / 12.0°C 72% 30.13 in / 1020.2 hPa 10.0 miles / 16.1 kilometers South 6.9 mph / 11.1 km/h - N/A   Overcast
2:53 PM 63.0°F / 17.2°C 54.0°F / 12.2°C 72% 30.13 in / 1020.3 hPa 10.0 miles / 16.1 kilometers SSW 4.6 mph / 7.4 km/h - N/A   Overcast
3:53 PM 63.0°F / 17.2°C 54.0°F / 12.2°C 72% 30.15 in / 1020.9 hPa 10.0 miles / 16.1 kilometers SSW 4.6 mph / 7.4 km/h - N/A   Overcast
4:53 PM 63.0°F / 17.2°C 54.0°F / 12.2°C 72% 30.15 in / 1020.9 hPa 10.0 miles / 16.1 kilometers Variable 3.5 mph / 5.6 km/h - N/A   Overcast
5:53 PM 62.1°F / 16.7°C 54.0°F / 12.2°C 75% 30.16 in / 1021.2 hPa 10.0 miles / 16.1 kilometers South 3.5 mph / 5.6 km/h - N/A   Overcast
6:53 PM 61.0°F / 16.1°C 54.0°F / 12.2°C 78% 30.17 in / 1021.4 hPa 10.0 miles / 16.1 kilometers Calm Calm - 0.00 in / 0.0 cm   Overcast
7:53 PM 60.1°F / 15.6°C 55.0°F / 12.8°C 83% 30.17 in / 1021.7 hPa 10.0 miles / 16.1 kilometers Calm Calm - N/A   Overcast
8:53 PM 60.1°F / 15.6°C 55.0°F / 12.8°C 83% 30.16 in / 1021.3 hPa 10.0 miles / 16.1 kilometers SE 3.5 mph / 5.6 km/h - N/A   Overcast
9:53 PM 59.0°F / 15.0°C 55.0°F / 12.8°C 87% 30.17 in / 1021.7 hPa 10.0 miles / 16.1 kilometers Calm Calm - N/A   Overcast
10:53 PM 59.0°F / 15.0°C 55.9°F / 13.3°C 90% 30.17 in / 1021.7 hPa 10.0 miles / 16.1 kilometers ESE 3.5 mph / 5.6 km/h - N/A   Overcast
11:53 PM 57.9°F / 14.4°C 55.0°F / 12.8°C 90% 30.18 in / 1022.0 hPa 10.0 miles / 16.1 kilometers Calm Calm - N/A   Overcast
Moon Phase
Nov. 03 Nov. 06 Nov. 13 Nov. 20 Nov. 28
Sunrise:07:53 AM (PDT) Moon Rise:09:35 PM (PDT)11/3
Sunset:05:53 PM (PDT) Moon Set:12:07 PM (PDT)11/3

Copyright © 2014 The Weather Underground, Inc.